User: anonymous   Login
Location: Innerarity Island Observatory
(30.3139°N, 87.4867°W)
Time: 03:39:31
(UTC-06:00)
Language:

OPAL - Orbit

View from above orbital plane
View from above orbital plane
View from above satellite
View from above satellite

Ground track
Ground track

The orbit data is extracted from the following two-line orbital elements,

1 26063U 00004C   14332.61810859  .00000238  00000-0  10061-3 0  1213
2 26063 100.2259 149.0789 0037051 055.5645 304.9028 14.36447844777633
Epoch (UTC): 28 November 2014 14:50:04
Eccentricity: 0.0037051
inclination: 100.2259°
perigee height: 744 km
apogee height: 797 km
right ascension of ascending node: 149.0789°
argument of perigee: 55.5645°
revolutions per day: 14.36447844
mean anomaly at epoch: 304.9028°
orbit number at epoch: 77763

The dashed part of the orbit path shows where the satellite is in the earth's shadow,  

DLR